EST,Max TemperatureF,Mean TemperatureF,Min TemperatureF,Max Dew PointF,MeanDew PointF,Min DewpointF,Max Humidity, Mean Humidity, Min Humidity, Max Sea Level PressureIn, Mean Sea Level PressureIn, Min Sea Level PressureIn, Max VisibilityMiles, Mean VisibilityMiles, Min VisibilityMiles, Max Wind SpeedMPH, Mean Wind SpeedMPH, Max Gust SpeedMPH,PrecipitationIn, CloudCover, Events, WindDirDegrees
2012-11-1,,,,,,,,,,,,,,,,,,,,,,
2012-11-2,,,,,,,,,,,,,,,,,,,,,,
2012-11-3,,,,,,,,,,,,,,,,,,,,,,
2012-11-4,,,,,,,,,,,,,,,,,,,,,,
2012-11-5,35,30,24,21,18,14,69,61,51,30.13,30.05,29.98,10,10,10,17,11,25,0.00,5,,331
2012-11-6,39,28,17,25,17,14,93,65,39,30.18,30.12,30.06,10,10,10,9,2,,0.00,0,,82
2012-11-7,37,30,24,23,18,12,75,57,41,30.07,29.94,29.85,10,10,10,18,8,24,0.00,4,,27
2012-11-8,41,36,30,21,17,12,69,49,36,29.94,29.85,29.79,10,10,10,23,15,33,0.00,4,,322
2012-11-9,46,37,28,30,24,18,87,63,37,30.17,30.07,29.93,10,10,10,17,11,24,0.00,2,,287
2012-11-10,50,40,30,39,35,28,93,78,66,30.39,30.29,30.17,10,8,2,8,4,,0.00,6,,236
2012-11-11,62,50,39,43,38,34,87,67,39,30.47,30.43,30.38,10,9,4,10,5,,0.00,3,,109
2012-11-12,60,48,37,52,45,36,93,78,59,30.44,30.33,30.15,10,9,3,18,7,24,0.00,2,,136
2012-11-13,57,45,33,54,32,21,94,78,60,30.43,30.30,30.10,10,9,1,24,10,33,0.01,7,,313
2012-11-14,42,34,26,23,20,16,74,57,39,30.53,30.46,30.43,10,10,10,14,7,20,0.00,1,,11
2012-11-15,39,31,23,25,22,19,93,72,49,30.44,30.36,30.28,10,10,10,8,2,,0.00,0,,33
2012-11-16,44,34,23,28,22,18,93,66,39,30.44,30.32,30.26,10,10,10,12,3,,0.00,0,,313
2012-11-17,48,36,24,28,25,21,93,69,43,30.62,30.55,30.43,10,10,10,7,3,,0.00,0,,344
2012-11-18,44,34,24,28,24,21,93,70,43,30.65,30.60,30.55,10,9,5,9,4,,0.00,0,,88
2012-11-19,48,37,26,27,22,18,93,63,34,30.54,30.40,30.23,10,10,10,9,3,,0.00,0,,72
2012-11-20,48,36,24,27,21,12,86,59,31,30.23,30.15,30.10,10,10,10,6,2,,0.00,0,,91
2012-11-21,51,40,28,27,21,14,80,54,28,30.23,30.19,30.13,10,10,10,8,2,,0.00,0,,71
2012-11-22,53,40,26,27,22,19,80,57,28,30.26,30.20,30.10,10,10,10,6,1,,0.00,0,,326
2012-11-23,55,40,26,39,30,21,93,69,36,30.10,29.87,29.65,10,10,10,18,3,30,0.01,3,,212
2012-11-24,39,34,28,34,19,12,81,58,41,29.77,29.71,29.67,10,10,3,24,15,38,0.00,7,,291
2012-11-25,32,30,28,25,18,12,80,62,51,29.87,29.83,29.77,10,9,2,24,13,37,0.00,8,,273
2012-11-26,39,34,28,21,19,16,69,56,39,30.21,30.05,29.86,10,10,10,18,7,25,0.00,4,,271
2012-11-27,32,29,26,30,26,19,100,86,69,30.24,30.21,30.18,10,10,10,6,0,,0.01,7,,318
2012-11-28,32,26,21,27,21,18,93,78,64,30.20,30.17,30.13,,,,13,4,16,0.00,4,,287
2012-11-29,37,27,17,25,20,16,100,74,52,30.28,30.23,30.19,,,,12,5,18,0.00,1,,258
2012-11-30,32,26,21,27,23,18,93,81,74,30.42,30.34,30.25,,,,12,4,16,0.00,5,,78